FW0103 Weather Reports


time (UTC)temp
C
wind
direction
speed
KPH
gust
KPH
rain 1hr
cm
rain 24hr
cm
rain mn
cm
humidity
%
barometer
mb
20180817125824 31 293 0.0 14.5 0.00 0.00 0.00 42 1017.0
20180817125329 31 125 3.2 9.7 0.00 0.00 0.00 42 1017.2
20180817124824 31 240 3.2 9.7 0.00 0.00 0.00 43 1017.2
20180817124328 31 268 0.0 6.4 0.00 0.00 0.00 44 1017.1
20180817123817 30 207 3.2 12.9 0.00 0.00 0.00 44 1017.3
20180817123332 30 247 6.4 12.9 0.00 0.00 0.00 44 1017.3
20180817122815 30 238 4.8 12.9 0.00 0.00 0.00 44 1017.4
20180817122327 30 287 6.4 11.3 0.00 0.00 0.00 44 1017.4
20180817121830 30 228 3.2 12.9 0.00 0.00 0.00 45 1017.4
20180817121316 30 288 4.8 12.9 0.00 0.00 0.00 46 1017.5
20180817120816 30 252 1.6 11.3 0.00 0.00 0.00 47 1017.4
20180817120327 30 269 6.4 11.3 0.00 0.00 0.00 46 1017.5
20180817115829 29 88 1.6 14.5 0.00 0.00 0.00 49 1017.4
20180817115315 29 302 3.2 14.5 0.00 0.00 0.00 49 1017.3
20180817114825 29 248 3.2 9.7 0.00 0.00 0.00 49 1017.4
20180817114328 28 252 1.6 9.7 0.00 0.00 0.00 49 1017.5
20180817113830 28 224 3.2 11.3 0.00 0.00 0.00 50 1017.4
20180817113329 28 253 3.2 11.3 0.00 0.00 0.00 52 1017.4
20180817112816 27 256 6.4 9.7 0.00 0.00 0.00 52 1017.5
20180817112315 27 273 1.6 9.7 0.00 0.00 0.00 53 1017.6
20180817111823 27 295 6.4 9.7 0.00 0.00 0.00 53 1017.5
20180817111314 27 264 1.6 6.4 0.00 0.00 0.00 56 1017.7
20180817110820 27 288 0.0 6.4 0.00 0.00 0.00 56 1017.7
20180817105813 27 221 1.6 9.7 0.00 0.00 0.00 56 1017.9
20180817105319 26 299 1.6 9.7 0.00 0.00 0.00 57 1018.0
20180817104812 26 258 3.2 9.7 0.00 0.00 0.00 58 1018.1
20180817104316 26 236 1.6 4.8 0.00 0.00 0.00 60 1018.1
20180817103827 25 271 1.6 11.3 0.00 0.00 0.00 61 1018.2
20180817103331 25 200 4.8 11.3 0.00 0.00 0.00 61 1018.3
20180817102824 25 239 3.2 11.3 0.00 0.00 0.00 61 1018.3
20180817102327 25 303 1.6 9.7 0.00 0.00 0.00 62 1018.4
20180817101814 25 245 3.2 8.0 0.00 0.00 0.00 61 1018.4
20180817101324 25 262 1.6 9.7 0.00 0.00 0.00 64 1018.3
20180817100831 25 286 3.2 8.0 0.00 0.00 0.00 63 1018.4
20180817100313 23 263 3.2 11.3 0.00 0.00 0.00 65 1018.4
20180817095826 23 271 6.4 9.7 0.00 0.00 0.00 65 1018.3
20180817095331 23 248 3.2 9.7 0.00 0.00 0.00 66 1018.3
20180817094821 23 354 1.6 9.7 0.00 0.00 0.00 67 1018.2
20180817094332 23 276 4.8 9.7 0.00 0.00 0.00 67 1018.2
20180817093824 23 274 1.6 6.4 0.00 0.00 0.00 68 1018.1
20180817093328 23 250 1.6 8.0 0.00 0.00 0.00 68 1018.2
20180817092820 23 266 3.2 9.7 0.00 0.00 0.00 70 1018.3
20180817092329 22 278 4.8 9.7 0.00 0.00 0.00 70 1018.3
20180817091817 23 266 4.8 9.7 0.00 0.00 0.00 70 1018.1
20180817091325 22 300 1.6 9.7 0.00 0.00 0.00 72 1018.1
20180817090833 22 276 3.2 9.7 0.00 0.00 0.00 70 1018.1
20180817090318 22 65 0.0 4.8 0.00 0.00 0.00 71 1018.1
20180817085816 22 57 0.0 4.8 0.00 0.00 0.00 73 1018.1
20180817085320 22 266 0.0 6.4 0.00 0.00 0.00 74 1018.1
20180817084813 21 238 1.6 6.4 0.00 0.00 0.00 75 1018.1
20180817084334 21 271 1.6 6.4 0.00 0.00 0.00 75 1018.1
20180817083819 21 230 1.6 6.4 0.00 0.00 0.00 76 1017.9
20180817083327 21 273 0.0 0.0 0.00 0.00 0.00 76 1018.0
20180817082829 21 285 0.0 0.0 0.00 0.00 0.00 78 1018.0
20180817082314 20 269 0.0 0.0 0.00 0.00 0.00 80 1018.0
20180817081818 20 257 0.0 6.4 0.00 0.00 0.00 80 1018.0
20180817081328 20 279 0.0 6.4 0.00 0.00 0.00 81 1017.9
20180817080832 20 221 0.0 6.4 0.00 0.00 0.00 83 1018.0
20180817080322 20 238 0.0 0.0 0.00 0.00 0.00 83 1018.0
20180817075827 19 265 0.0 0.0 0.00 0.00 0.00 83 1018.1
20180817075319 19 257 0.0 0.0 0.00 0.00 0.00 85 1018.1
20180817074826 19 278 0.0 0.0 0.00 0.00 0.00 86 1018.2
20180817074329 19 269 0.0 0.0 0.00 0.00 0.00 88 1018.1
20180817073834 18 261 0.0 0.0 0.00 0.00 0.00 89 1018.2
20180817073322 18 276 0.0 0.0 0.00 0.00 0.00 90 1018.1
20180817072815 18 265 0.0 0.0 0.00 0.00 0.00 92 1018.1
20180817072322 18 271 0.0 0.0 0.00 0.00 0.00 95 1018.1
20180817071813 17 271 0.0 0.0 0.00 0.00 0.00 93 1018.0
20180817071321 17 271 0.0 0.0 0.00 0.00 0.00 94 1018.1
20180817070815 17 271 0.0 0.0 0.00 0.00 0.00 94 1018.1
20180817070329 16 271 0.0 0.0 0.00 0.00 0.00 96 1018.1
20180817065826 16 271 0.0 0.0 0.00 0.00 0.00 96 1018.2
20180817065339 15 271 0.0 0.0 0.00 0.00 0.00 96 1018.1
20180817064825 14 271 0.0 0.0 0.00 0.00 0.00 95 1018.1
20180817064320 14 271 0.0 0.0 0.00 0.00 0.00 96 1018.1
20180817063831 13 271 0.0 0.0 0.00 0.00 0.00 96 1018.0
20180817063324 13 271 0.0 0.0 0.00 0.00 0.00 96 1018.0
20180817062820 12 271 0.0 0.0 0.00 0.00 0.00 96 1018.0
20180817062326 12 271 0.0 0.0 0.00 0.00 0.00 95 1017.9
20180817061822 12 271 0.0 0.0 0.00 0.00 0.00 95 1017.9
20180817061328 12 271 0.0 0.0 0.00 0.00 0.00 96 1017.9
20180817060824 12 271 0.0 0.0 0.00 0.00 0.00 95 1017.9
20180817060334 12 271 0.0 0.0 0.00 0.00 0.00 95 1017.9
20180817055821 12 271 0.0 0.0 0.00 0.00 0.00 95 1018.0
20180817055318 12 271 0.0 0.0 0.00 0.00 0.00 95 1017.8
20180817054829 12 271 0.0 0.0 0.00 0.00 0.00 95 1017.9
20180817054317 12 271 0.0 0.0 0.00 0.00 0.00 96 1017.8
20180817053815 12 271 0.0 0.0 0.00 0.00 0.00 95 1017.7
20180817053327 12 271 0.0 0.0 0.00 0.00 0.00 95 1017.6
20180817052819 12 271 0.0 0.0 0.00 0.00 0.00 96 1017.6
20180817052316 12 270 0.0 0.0 0.00 0.00 0.00 95 1017.6
20180817051826 12 270 0.0 0.0 0.00 0.00 0.00 94 1017.5
20180817051320 12 270 0.0 0.0 0.00 0.00 0.00 95 1017.5
20180817050828 12 270 0.0 0.0 0.00 0.00 0.00 95 1017.5
20180817050323 12 270 0.0 0.0 0.00 0.00 0.00 94 1017.5
20180817045832 12 270 0.0 0.0 0.00 0.00 0.00 94 1017.5
20180817045324 12 270 0.0 0.0 0.00 0.00 0.00 94 1017.5
20180817044821 12 270 0.0 0.0 0.00 0.00 0.00 95 1017.5
20180817044333 12 270 0.0 0.0 0.00 0.00 0.00 95 1017.4
20180817043821 12 270 0.0 0.0 0.00 0.00 0.00 95 1017.5
20180817043313 12 270 0.0 0.0 0.00 0.00 0.00 94 1017.5